Location: Newark
(31.9000°N, 35.2000°E)
Time: 15:53:26
(UTC+00:00)

ISS - Visible Passes

Search period start: 15 October 2019 00:00
Search period end: 25 October 2019 00:00
Orbit: 411 x 421 km, 51.6° (Epoch: 15 October)

Date Brightness Start Highest point End Pass type
(mag) Time Alt. Az. Time Alt. Az. Time Alt. Az.
20 Oct -0.4 03:15:59 10° SSE 03:17:21 12° SE 03:18:44 10° E visible
22 Oct -2.4 03:13:29 10° SSW 03:16:41 41° SE 03:19:52 10° ENE visible
23 Oct -1.2 02:25:37 10° S 02:28:13 21° SE 02:30:50 10° ENE visible
24 Oct -0.6 01:39:03 10° SE 01:39:49 11° SE 01:40:41 10° ESE visible
24 Oct -3.5 03:12:54 10° WSW 03:16:11 49° NW 03:19:28 10° NE visible
